DW7984 Sant Quinti-La Boria ES current weather conditions

sailwx.info

Wind from 284 at 6 knots gusting 18

Air temperature 18.9° C
Dewpoint 9.6° C

Last reported at 2020-Sep-26 17:09 UTC.
Time now 2020-Sep-26 18:12 UTC

Location: N 41°28' E 001°40'.
View on Google Maps.

See reports from other nearby stations

  
Tides and Currents Weather Stations Pressure Air Temp Water Temp Dewpoint Dewpoint Depression Visibility Wind Speed Wind Dir Waves Ship Positions
date/time (UTC)wind fromknots sea level pressurealtimeterstation pressurevisibilityair tempwater tempwave heightnotes
2020-Sep-26 17:09 284 6 gusting 18 18.9
2020-Sep-26 17:04 303 7 gusting 17 18.9
2020-Sep-26 16:54 330 6 gusting 17 19.4
2020-Sep-26 16:49 253 6 gusting 13 19.4
2020-Sep-26 16:44 324 6 gusting 16 19.4
2020-Sep-26 16:39 342 8 gusting 20 19.4
2020-Sep-26 16:34 303 7 gusting 20 19.4
2020-Sep-26 16:29 270 7 gusting 21 19.4
2020-Sep-26 16:24 314 9 gusting 21 20.0
2020-Sep-26 16:19 324 9 gusting 15 20.0
2020-Sep-26 16:14 292 6 gusting 15 20.6
2020-Sep-26 16:09 269 7 gusting 15 20.6
2020-Sep-26 16:04 316 5 gusting 16 20.6
2020-Sep-26 15:59 291 8 gusting 16 20.6
2020-Sep-26 15:54 284 6 gusting 13 21.1
2020-Sep-26 15:49 267 5 gusting 21 21.1
2020-Sep-26 15:44 308 9 gusting 21 21.1
2020-Sep-26 15:39 285 9 gusting 16 21.1
2020-Sep-26 15:34 288 6 gusting 17 21.1
2020-Sep-26 15:29 290 6 gusting 17 21.7
2020-Sep-26 15:24 293 9 gusting 16 21.7
2020-Sep-26 15:19 299 7 gusting 13 21.7
2020-Sep-26 15:14 295 5 gusting 14 21.7
2020-Sep-26 15:09 276 5 gusting 14 21.7
2020-Sep-26 15:04 295 6 gusting 14 21.7
2020-Sep-26 14:59 289 6 gusting 13 21.7
2020-Sep-26 14:54 247 6 gusting 12 21.7
2020-Sep-26 14:49 262 5 gusting 11 21.7
2020-Sep-26 14:44 274 7 gusting 13 21.7
2020-Sep-26 14:39 293 6 gusting 14 21.7
2020-Sep-26 14:34 256 6 gusting 18 21.7
2020-Sep-26 14:24 287 5 gusting 13 21.7
2020-Sep-26 14:19 303 6 gusting 18 21.7
2020-Sep-26 14:14 301 8 gusting 18 21.7
2020-Sep-26 14:09 244 6 gusting 14 21.7
2020-Sep-26 14:04 270 6 gusting 13 21.7
2020-Sep-26 13:59 277 4 gusting 20 21.7
2020-Sep-26 13:54 285 6 gusting 20 21.7
2020-Sep-26 13:49 273 10 gusting 17 21.7
2020-Sep-26 13:44 289 6 gusting 13 21.7
2020-Sep-26 13:39 276 4 gusting 10 21.7
2020-Sep-26 13:34 303 1 gusting 11 21.7
2020-Sep-26 13:29 298 6 gusting 13 21.1
2020-Sep-26 13:24 274 5 gusting 12 21.1
2020-Sep-26 13:19 253 5 gusting 11 21.1
2020-Sep-26 13:14 270 7 gusting 13 21.1
2020-Sep-26 13:09 265 8 gusting 13 21.1
2020-Sep-26 13:04 224 6 gusting 11 21.1
2020-Sep-26 12:59 344 6 gusting 15 21.1
2020-Sep-26 12:54 291 7 gusting 15 21.1
2020-Sep-26 12:49 302 2 gusting 11 21.1
2020-Sep-26 12:44 231 4 gusting 13 21.1
2020-Sep-26 12:39 293 6 gusting 13 21.1
2020-Sep-26 12:34 301 6 gusting 13 21.1
2020-Sep-26 12:29 330 4 gusting 12 20.6
2020-Sep-26 12:24 287 7 gusting 13 20.6
2020-Sep-26 12:19 305 6 gusting 13 20.6
2020-Sep-26 12:14 324 4 gusting 13 20.6
2020-Sep-26 12:09 296 8 gusting 13 20.6
2020-Sep-26 12:04 239 6 gusting 13 20.6
2020-Sep-26 11:59 272 5 gusting 12 20.6
2020-Sep-26 11:54 316 6 gusting 12 20.0
2020-Sep-26 11:49 274 3 gusting 11 20.0
2020-Sep-26 11:44 277 4 gusting 13 19.4
2020-Sep-26 11:39 251 5 gusting 13 19.4
2020-Sep-26 11:34 286 3 gusting 17 19.4
2020-Sep-26 11:29 236 7 gusting 17 19.4
2020-Sep-26 11:24 287 2 gusting 13 19.4
2020-Sep-26 11:19 302 6 gusting 15 19.4
2020-Sep-26 11:14 269 5 gusting 15 18.9
2020-Sep-26 11:09 239 5 gusting 15 18.9
2020-Sep-26 11:04 250 4 gusting 15 18.9
2020-Sep-26 10:59 310 6 gusting 13 18.9
2020-Sep-26 10:54 285 7 gusting 13 18.9
2020-Sep-26 10:49 276 6 gusting 13 18.3
2020-Sep-26 10:44 293 6 gusting 12 18.3
2020-Sep-26 10:39 276 6 gusting 16 18.3
2020-Sep-26 10:34 318 6 gusting 15 18.3
2020-Sep-26 10:29 311 6 gusting 15 18.3
2020-Sep-26 10:24 314 6 gusting 13 17.8
2020-Sep-26 10:19 305 5 gusting 11 17.8
2020-Sep-26 10:14 280 5 gusting 13 17.8
2020-Sep-26 10:09 282 7 gusting 12 17.8
2020-Sep-26 10:04 276 6 gusting 13 17.2
2020-Sep-26 09:59 253 6 gusting 12 17.2
2020-Sep-26 09:54 277 6 gusting 13 17.2
2020-Sep-26 09:49 347 6 gusting 14 16.7
2020-Sep-26 09:44 314 7 gusting 15 16.7
2020-Sep-26 09:39 285 6 gusting 11 16.7
2020-Sep-26 09:34 325 4 gusting 11 16.7
2020-Sep-26 09:29 314 3 gusting 11 16.7
2020-Sep-26 09:24 263 4 gusting 12 16.1
2020-Sep-26 09:19 293 6 gusting 12 16.1
2020-Sep-26 09:14 278 4 gusting 14 15.6
2020-Sep-26 09:09 283 6 gusting 17 15.6
2020-Sep-26 09:04 255 7 gusting 17 15.6
2020-Sep-26 08:59 287 6 gusting 16 15.6
2020-Sep-26 08:54 245 8 gusting 16 15.6
2020-Sep-26 08:49 342 3 gusting 12 15.6
2020-Sep-26 08:44 297 6 gusting 12 15.6
2020-Sep-26 08:39 288 6 gusting 14 15.0
2020-Sep-26 08:34 295 5 gusting 15 15.0
2020-Sep-26 08:29 314 8 gusting 16 15.0
2020-Sep-26 08:24 278 7 gusting 16 14.4
2020-Sep-26 08:19 280 8 gusting 14 14.4
2020-Sep-26 08:14 272 8 gusting 16 14.4
2020-Sep-26 08:09 283 7 gusting 16 13.9
2020-Sep-26 08:04 284 8 gusting 19 13.9
2020-Sep-26 07:59 283 10 gusting 19 13.9
2020-Sep-26 07:54 297 6 gusting 13 13.9
2020-Sep-26 07:49 303 7 gusting 18 13.3
2020-Sep-26 07:44 280 10 gusting 18 13.9
2020-Sep-26 07:39 293 6 gusting 14 13.3
2020-Sep-26 07:34 292 6 gusting 13 13.3
2020-Sep-26 07:29 280 8 gusting 13 13.3
2020-Sep-26 07:24 315 6 gusting 14 12.8
2020-Sep-26 07:19 302 7 gusting 13 12.8
2020-Sep-26 07:14 270 7 gusting 13 12.8
2020-Sep-26 07:09 274 7 gusting 13 12.8
2020-Sep-26 07:04 295 6 gusting 16 12.2
2020-Sep-26 06:59 270 7 gusting 16 12.2
2020-Sep-26 06:54 290 6 gusting 13 12.2
2020-Sep-26 06:49 296 7 gusting 15 11.7
2020-Sep-26 06:44 297 6 gusting 20 11.7
2020-Sep-26 06:39 297 8 gusting 20 11.1
2020-Sep-26 06:34 300 6 gusting 16 11.1
2020-Sep-26 06:29 310 7 gusting 16 11.7
2020-Sep-26 06:24 308 7 gusting 16 11.1
2020-Sep-26 06:19 288 7 gusting 15 11.1
2020-Sep-26 06:14 271 8 gusting 15 11.1
2020-Sep-26 06:09 297 8 gusting 18 11.1
2020-Sep-26 06:04 313 7 gusting 15 11.1
2020-Sep-26 05:59 302 6 gusting 12 10.6
2020-Sep-26 05:54 328 7 gusting 13 10.6
2020-Sep-26 05:49 300 7 gusting 13 10.6
2020-Sep-26 05:44 310 6 gusting 13 10.6
2020-Sep-26 05:39 292 7 gusting 13 10.6
2020-Sep-26 05:34 305 6 gusting 13 11.1
2020-Sep-26 05:29 312 6 gusting 13 10.6
2020-Sep-26 05:24 310 6 gusting 16 11.1
2020-Sep-26 05:19 274 7 gusting 12 11.1
2020-Sep-26 05:14 303 6 gusting 12 11.1
2020-Sep-26 05:09 305 6 gusting 13 11.1
2020-Sep-26 05:04 305 6 gusting 13 11.1
2020-Sep-26 04:59 297 5 gusting 13 11.1
2020-Sep-26 04:54 299 5 gusting 14 11.1
2020-Sep-26 04:49 303 7 gusting 14 11.1
2020-Sep-26 04:44 276 4 gusting 20 11.1
2020-Sep-26 04:39 318 7 gusting 20 11.1
2020-Sep-26 04:34 341 6 gusting 17 11.1
2020-Sep-26 04:29 324 6 gusting 17 11.1
2020-Sep-26 04:24 299 8 gusting 19 11.1
2020-Sep-26 04:19 303 8 gusting 19 11.1
2020-Sep-26 04:14 302 9 gusting 21 11.1
2020-Sep-26 04:09 299 10 gusting 21 11.1
2020-Sep-26 04:04 314 8 gusting 19 11.1
2020-Sep-26 03:59 255 12 gusting 20 11.1
2020-Sep-26 03:54 314 11 gusting 20 11.1
2020-Sep-26 03:49 293 8 gusting 17 11.1
2020-Sep-26 03:44 318 9 gusting 20 11.1
2020-Sep-26 03:39 306 10 gusting 19 11.1
2020-Sep-26 03:34 293 9 gusting 19 11.1
2020-Sep-26 03:29 295 10 gusting 22 11.1
2020-Sep-26 03:24 272 12 gusting 22 11.1
2020-Sep-26 03:19 285 9 gusting 19 11.1
2020-Sep-26 03:14 287 7 gusting 15 11.1
2020-Sep-26 03:09 282 6 gusting 13 11.1
2020-Sep-26 03:04 293 7 gusting 15 11.1
2020-Sep-26 02:59 299 8 gusting 16 11.1
2020-Sep-26 02:54 308 4 gusting 17 11.1
2020-Sep-26 02:49 342 8 gusting 17 11.1
2020-Sep-26 02:44 332 9 gusting 24 11.1
2020-Sep-26 02:39 274 6 gusting 15 11.1
2020-Sep-26 02:34 312 7 gusting 19 11.1
2020-Sep-26 02:29 269 6 gusting 14 11.1
2020-Sep-26 02:24 305 7 gusting 17 11.1
2020-Sep-26 02:19 310 9 gusting 17 11.1
2020-Sep-26 02:14 287 8 gusting 19 11.1
2020-Sep-26 02:09 326 10 gusting 19 11.1
2020-Sep-26 02:04 299 6 gusting 15 11.1
2020-Sep-26 01:59 330 6 gusting 15 11.1
2020-Sep-26 01:54 257 6 gusting 14 11.1
2020-Sep-26 01:49 289 7 gusting 15 11.1
2020-Sep-26 01:44 301 9 gusting 15 11.1
2020-Sep-26 01:39 284 4 gusting 11 11.1
2020-Sep-26 01:34 320 6 gusting 12 11.1
2020-Sep-26 01:29 309 6 gusting 13 11.1
2020-Sep-26 01:24 314 6 gusting 13 11.1
2020-Sep-26 01:19 298 6 gusting 15 11.1
2020-Sep-26 01:14 302 6 gusting 14 11.7
2020-Sep-26 01:09 280 7 gusting 14 11.7
2020-Sep-26 01:04 292 6 gusting 16 11.7
2020-Sep-26 00:59 303 8 gusting 19 11.7
2020-Sep-26 00:54 279 8 gusting 19 11.7
2020-Sep-26 00:49 301 11 gusting 19 11.7
2020-Sep-26 00:44 257 10 gusting 19 11.7
2020-Sep-26 00:39 293 9 gusting 17 11.7
2020-Sep-26 00:34 322 8 gusting 17 11.7
2020-Sep-26 00:29 309 7 gusting 16 11.7
2020-Sep-26 00:24 257 6 gusting 20 11.7
2020-Sep-26 00:19 286 7 gusting 20 11.7
2020-Sep-26 00:14 311 7 gusting 18 11.7
2020-Sep-26 00:09 316 8 gusting 18 11.7
2020-Sep-26 00:04 305 7 gusting 17 11.7
2020-Sep-25 23:59 295 5 gusting 13 11.7
2020-Sep-25 23:54 275 7 gusting 13 11.7
2020-Sep-25 23:49 305 6 gusting 14 11.7
2020-Sep-25 23:44 276 7 gusting 15 11.7
2020-Sep-25 23:39 289 6 gusting 15 11.7
2020-Sep-25 23:34 311 6 gusting 13 11.7
2020-Sep-25 23:29 276 6 gusting 19 11.7
2020-Sep-25 23:24 298 8 gusting 19 11.7
2020-Sep-25 23:19 321 8 gusting 18 11.7
2020-Sep-25 23:14 299 7 gusting 15 11.7
2020-Sep-25 23:09 322 8 gusting 18 12.2
2020-Sep-25 23:04 285 9 gusting 18 12.2
2020-Sep-25 22:59 301 9 gusting 21 12.2
2020-Sep-25 22:54 278 8 gusting 21 12.2
2020-Sep-25 22:49 307 9 gusting 19 12.2
2020-Sep-25 22:44 259 8 gusting 19 12.2
2020-Sep-25 22:39 258 8 gusting 15 12.2
2020-Sep-25 22:34 299 8 gusting 16 12.2
2020-Sep-25 22:29 285 7 gusting 24 12.2
2020-Sep-25 22:24 269 8 gusting 18 12.2
2020-Sep-25 22:19 285 8 gusting 19 12.2
2020-Sep-25 22:14 330 8 gusting 19 12.2
2020-Sep-25 22:09 010 8 gusting 17 12.2
2020-Sep-25 22:04 297 9 gusting 22 12.2
2020-Sep-25 21:58 307 9 gusting 22 12.2
2020-Sep-25 21:54 297 6 gusting 26 12.8
2020-Sep-25 21:49 304 13 gusting 26 12.8
2020-Sep-25 21:44 309 12 gusting 20 12.8
2020-Sep-25 21:39 298 13 gusting 20 12.8
2020-Sep-25 21:34 270 8 gusting 18 12.8
2020-Sep-25 21:29 287 7 gusting 20 12.8
2020-Sep-25 21:24 318 8 gusting 20 12.8
2020-Sep-25 21:19 281 9 gusting 21 12.8
2020-Sep-25 21:14 294 10 gusting 26 12.8
2020-Sep-25 21:09 306 13 gusting 26 13.3
2020-Sep-25 21:04 297 12 gusting 26 13.3
2020-Sep-25 20:59 293 9 gusting 26 13.3
2020-Sep-25 20:54 268 10 gusting 19 13.3
2020-Sep-25 20:49 290 8 gusting 22 13.3
2020-Sep-25 20:44 285 10 gusting 22 13.3
2020-Sep-25 20:39 291 13 gusting 22 13.3
2020-Sep-25 20:34 299 12 gusting 26 13.3
2020-Sep-25 20:29 307 13 gusting 26 13.3
2020-Sep-25 20:24 330 11 gusting 27 13.3
2020-Sep-25 20:19 305 10 gusting 27 13.3
2020-Sep-25 20:14 332 12 gusting 23 13.3
2020-Sep-25 20:09 280 9 gusting 24 13.3
2020-Sep-25 20:04 276 13 gusting 28 13.3
2020-Sep-25 19:59 287 15 gusting 28 13.3
2020-Sep-25 19:54 310 10 gusting 22 13.9
2020-Sep-25 19:49 291 13 gusting 23 13.9
2020-Sep-25 19:44 295 12 gusting 20 13.9
2020-Sep-25 19:39 337 9 gusting 26 13.9
2020-Sep-25 19:34 282 14 gusting 28 13.9
2020-Sep-25 19:29 301 13 gusting 28 13.9
2020-Sep-25 19:24 275 13 gusting 24 13.9
2020-Sep-25 19:19 291 13 gusting 26 13.9
2020-Sep-25 19:14 307 14 gusting 26 14.4
2020-Sep-25 19:09 329 14 gusting 26 14.4
2020-Sep-25 19:04 305 12 gusting 25 14.4
2020-Sep-25 18:59 328 13 gusting 24 14.4
2020-Sep-25 18:54 246 12 gusting 24 14.4
2020-Sep-25 18:49 275 12 gusting 24 14.4
2020-Sep-25 18:44 271 17 gusting 26 14.4
2020-Sep-25 18:39 230 13 gusting 28 14.4
2020-Sep-25 18:34 290 11 gusting 24 15.0
2020-Sep-25 18:29 266 11 gusting 26 15.0
2020-Sep-25 18:24 276 14 gusting 26 15.0
2020-Sep-25 18:19 289 7 gusting 21 15.0
2020-Sep-25 18:14 301 9 gusting 23 15.0
2020-Sep-25 18:09 314 10 gusting 27 15.0
2020-Sep-25 18:04 318 13 gusting 27 15.0
2020-Sep-25 17:59 269 9 gusting 25 15.0
2020-Sep-25 17:54 271 11 gusting 29 15.6
2020-Sep-25 17:49 288 10 gusting 29 15.6
2020-Sep-25 17:44 294 11 gusting 21 15.6
2020-Sep-25 17:39 287 12 gusting 24 15.6
2020-Sep-25 17:34 297 9 gusting 26 15.6
2020-Sep-25 17:29 300 13 gusting 31 16.1
2020-Sep-25 17:24 281 13 gusting 31 16.1
2020-Sep-25 17:19 291 13 gusting 21 16.1
2020-Sep-25 17:14 332 11 gusting 23 16.1
2020-Sep-25 17:09 291 10 gusting 24 16.1
2020-Sep-25 17:04 294 13 gusting 29 16.7
2020-Sep-25 16:59 283 13 gusting 26 16.7
2020-Sep-25 16:54 300 10 gusting 19 16.7
2020-Sep-25 16:49 278 7 gusting 17 16.7
2020-Sep-25 16:44 320 11 gusting 26 16.7
2020-Sep-25 16:39 291 9 gusting 22 16.7
2020-Sep-25 16:34 295 11 gusting 24 16.7
2020-Sep-25 16:29 286 13 gusting 27 16.7
2020-Sep-25 16:24 278 13 gusting 27 17.2
2020-Sep-25 16:19 259 14 gusting 28 17.2
2020-Sep-25 16:14 240 11 gusting 28 17.2
2020-Sep-25 16:09 270 11 gusting 26 17.2
2020-Sep-25 16:04 287 9 gusting 24 17.2
2020-Sep-25 15:59 274 10 gusting 21 17.2
2020-Sep-25 15:54 318 10 gusting 24 17.2
2020-Sep-25 15:49 275 13 gusting 27 17.8
2020-Sep-25 15:44 226 13 gusting 28 17.8
2020-Sep-25 15:39 285 13 gusting 28 17.8
2020-Sep-25 15:34 301 13 gusting 29 17.8
2020-Sep-25 15:29 294 16 gusting 29 17.8
2020-Sep-25 15:24 265 14 gusting 29 17.8
2020-Sep-25 15:19 284 13 gusting 20 17.8
2020-Sep-25 15:14 268 12 gusting 26 18.3
2020-Sep-25 15:09 302 12 gusting 24 18.3
2020-Sep-25 15:04 251 11 gusting 36 18.3
2020-Sep-25 14:59 303 15 gusting 36 18.3
2020-Sep-25 14:54 281 14 gusting 24 18.3
2020-Sep-25 14:49 291 8 gusting 29 18.3
2020-Sep-25 14:44 301 12 gusting 29 18.3
2020-Sep-25 14:39 301 13 gusting 25 18.3
2020-Sep-25 14:34 275 10 gusting 18 18.9
2020-Sep-25 14:29 296 11 gusting 24 18.9
2020-Sep-25 14:24 283 8 gusting 26 18.3
2020-Sep-25 14:19 263 11 gusting 27 18.9
2020-Sep-25 14:14 264 11 gusting 27 18.9
2020-Sep-25 14:09 266 13 gusting 31 18.3
2020-Sep-25 14:04 282 13 gusting 31 18.3
2020-Sep-25 13:59 318 13 gusting 25 18.9
2020-Sep-25 13:54 286 9 gusting 27 18.9
2020-Sep-25 13:49 287 15 gusting 27 18.9
2020-Sep-25 13:44 277 10 gusting 26 18.9
2020-Sep-25 13:39 303 13 gusting 24 18.9
2020-Sep-25 13:34 326 12 gusting 23 18.9
2020-Sep-25 13:29 315 6 gusting 28 18.3
2020-Sep-25 13:24 289 15 gusting 28 18.3
2020-Sep-25 13:19 279 9 gusting 28 18.3
2020-Sep-25 13:14 283 13 gusting 29 18.3
2020-Sep-25 13:09 299 16 gusting 26 18.9
2020-Sep-25 13:04 267 14 gusting 24 18.9
2020-Sep-25 12:59 271 10 gusting 22 18.9
2020-Sep-25 12:54 262 11 gusting 30 18.9
2020-Sep-25 12:49 331 15 gusting 30 18.9
2020-Sep-25 12:44 287 11 gusting 30 18.3
2020-Sep-25 12:39 262 16 gusting 30 18.3
2020-Sep-25 12:34 280 12 gusting 23 18.9
2020-Sep-25 12:29 282 10 gusting 31 18.3
2020-Sep-25 12:24 278 16 gusting 23 18.9
2020-Sep-25 12:19 320 13 gusting 27 18.3
2020-Sep-25 12:14 293 17 gusting 27 18.9
2020-Sep-25 12:09 319 8 gusting 30 18.9
2020-Sep-25 12:04 280 10 gusting 30 18.9
2020-Sep-25 11:59 280 10 gusting 23 18.9
2020-Sep-25 11:54 299 13 gusting 26 18.9
2020-Sep-25 11:49 277 11 gusting 26 18.3
2020-Sep-25 11:44 322 12 gusting 25 18.3
2020-Sep-25 11:39 293 12 gusting 25 18.3
2020-Sep-25 11:34 308 11 gusting 27 18.3
2020-Sep-25 11:29 279 10 gusting 27 18.3
2020-Sep-25 11:24 265 12 gusting 26 18.3
2020-Sep-25 11:19 262 13 gusting 26 18.3
2020-Sep-25 11:14 313 13 gusting 33 18.3
2020-Sep-25 11:09 283 16 gusting 33 18.3
2020-Sep-25 11:04 279 10 gusting 33 18.3
2020-Sep-25 10:59 276 13 gusting 30 18.3
2020-Sep-25 10:54 268 14 gusting 28 18.3
2020-Sep-25 10:49 319 9 gusting 27 18.3
2020-Sep-25 10:44 285 13 gusting 27 18.3
2020-Sep-25 10:39 284 12 gusting 24 18.3
2020-Sep-25 10:34 269 12 gusting 26 17.8
2020-Sep-25 10:29 018 13 gusting 26 18.3
2020-Sep-25 10:24 286 11 gusting 26 18.3
2020-Sep-25 10:19 271 9 gusting 32 17.8
2020-Sep-25 10:14 031 13 gusting 32 17.8
2020-Sep-25 10:09 299 9 gusting 19 17.8
2020-Sep-25 10:04 271 10 gusting 26 17.8
2020-Sep-25 09:59 305 13 gusting 26 17.8
2020-Sep-25 09:54 277 10 gusting 25 17.8
2020-Sep-25 09:49 285 14 gusting 25 17.8
2020-Sep-25 09:44 284 12 gusting 29 17.8
2020-Sep-25 09:39 297 15 gusting 29 17.8
2020-Sep-25 09:34 256 7 gusting 19 17.8
2020-Sep-25 09:29 301 9 gusting 18 17.8
2020-Sep-25 09:24 276 9 gusting 19 17.8
2020-Sep-25 09:19 278 8 gusting 19 17.2
2020-Sep-25 09:14 278 8 gusting 22 17.2
2020-Sep-25 09:09 295 10 gusting 22 17.2
2020-Sep-25 09:04 287 9 gusting 22 17.2
2020-Sep-25 08:59 310 13 gusting 22 17.2
2020-Sep-25 08:54 316 11 gusting 23 17.2
2020-Sep-25 08:49 309 12 gusting 21 17.2
2020-Sep-25 08:44 354 9 gusting 25 17.2
2020-Sep-25 08:39 354 12 gusting 26 17.2
2020-Sep-25 08:34 271 12 gusting 22 17.2
2020-Sep-25 08:29 286 7 gusting 22 17.2
2020-Sep-25 08:24 277 8 gusting 21 17.2
2020-Sep-25 08:19 296 6 gusting 20 17.2
2020-Sep-25 08:14 273 7 gusting 20 17.2
2020-Sep-25 08:09 275 4 gusting 17 17.2
2020-Sep-25 08:04 315 7 gusting 20 16.7
2020-Sep-25 07:59 332 7 gusting 20 16.7
2020-Sep-25 07:54 279 11 gusting 24 16.7
2020-Sep-25 07:49 316 10 gusting 24 16.7
2020-Sep-25 07:44 312 9 gusting 19 16.7
2020-Sep-25 07:39 263 10 gusting 22 16.7
2020-Sep-25 07:34 312 11 gusting 26 16.7
2020-Sep-25 07:29 292 12 gusting 26 16.7
2020-Sep-25 07:24 265 11 gusting 23 16.7
2020-Sep-25 07:19 315 11 gusting 28 16.1
2020-Sep-25 07:14 301 14 gusting 28 16.1
2020-Sep-25 07:09 278 12 gusting 24 16.1
2020-Sep-25 07:04 298 13 gusting 26 16.1
2020-Sep-25 06:59 316 13 gusting 26 16.1
2020-Sep-25 06:54 281 14 gusting 23 16.1
2020-Sep-25 06:49 229 13 gusting 28 16.1
2020-Sep-25 06:44 268 14 gusting 28 16.1
2020-Sep-25 06:39 283 15 gusting 29 16.1
2020-Sep-25 06:34 314 9 gusting 24 15.6
2020-Sep-25 06:29 305 11 gusting 26 16.1
2020-Sep-25 06:24 272 13 gusting 26 15.6
2020-Sep-25 06:19 304 11 gusting 18 15.6
2020-Sep-25 06:14 265 8 gusting 18 15.6
2020-Sep-25 06:09 248 6 gusting 19 15.6
2020-Sep-25 06:04 299 10 gusting 19 16.1
2020-Sep-25 05:59 274 12 gusting 19 16.1
2020-Sep-25 05:54 285 9 gusting 19 16.1
2020-Sep-25 05:49 312 8 gusting 25 16.1
2020-Sep-25 05:44 283 9 gusting 25 16.1
2020-Sep-25 05:39 308 7 gusting 19 16.1
2020-Sep-25 05:34 278 6 gusting 20 16.1
2020-Sep-25 05:29 301 10 gusting 20 16.1
2020-Sep-25 05:24 321 10 gusting 18 16.1
2020-Sep-25 05:19 305 6 gusting 13 16.1
2020-Sep-25 05:14 324 7 gusting 16 16.7
2020-Sep-25 05:09 301 6 gusting 20 16.7
2020-Sep-25 05:04 330 6 gusting 20 16.7
2020-Sep-25 04:59 359 7 gusting 19 16.7
2020-Sep-25 04:54 283 8 gusting 22 16.7
2020-Sep-25 04:49 359 8 gusting 22 16.7
2020-Sep-25 04:44 261 12 gusting 22 16.7
2020-Sep-25 04:39 301 11 gusting 19 16.7
2020-Sep-25 04:34 261 7 gusting 23 17.2
2020-Sep-25 04:29 260 11 gusting 24 17.2
2020-Sep-25 04:24 289 14 gusting 24 17.2
2020-Sep-25 04:19 305 10 gusting 20 16.7
2020-Sep-25 04:14 251 6 gusting 20 16.7
2020-Sep-25 04:09 246 7 gusting 16 16.7
2020-Sep-25 04:04 285 6 gusting 16 16.7
2020-Sep-25 03:59 271 6 gusting 17 16.7
2020-Sep-25 03:54 310 2 gusting 8 17.2
2020-Sep-25 03:49 281 3 gusting 11 17.2
2020-Sep-25 03:44 296 5 gusting 14 17.2
2020-Sep-25 03:39 285 2 gusting 14 17.2
2020-Sep-25 03:34 275 6 gusting 13 17.2
2020-Sep-25 03:29 295 1 gusting 11 17.2
2020-Sep-25 03:24 252 2 gusting 13 17.2
2020-Sep-25 03:19 301 2 gusting 8 17.2
2020-Sep-25 03:14 283 4 gusting 8 17.2
2020-Sep-25 03:09 291 3 gusting 8 17.2
2020-Sep-25 03:04 303 2 gusting 7 17.2
2020-Sep-25 02:59 263 2 gusting 8 17.8
2020-Sep-25 02:54 294 3 gusting 6 17.8
2020-Sep-25 02:49 206 3 gusting 8 17.8
2020-Sep-25 02:44 344 3 gusting 8 17.8
2020-Sep-25 02:39 168 3 gusting 9 17.8
2020-Sep-25 02:34 291 6 gusting 13 17.8
2020-Sep-25 02:29 269 6 gusting 13 17.8
2020-Sep-25 02:24 303 2 gusting 6 18.3
2020-Sep-25 02:19 019 0 gusting 7 18.3
2020-Sep-25 02:14 293 3 gusting 12 18.3
2020-Sep-25 02:09 253 4 gusting 12 18.3
2020-Sep-25 02:04 076 2 gusting 12 17.8
2020-Sep-25 01:59 048 1 gusting 10 17.8
2020-Sep-25 01:54 287 1 gusting 10 17.8
2020-Sep-25 01:49 250 1 gusting 8 17.8
2020-Sep-25 01:44 331 3 gusting 8 17.8
2020-Sep-25 01:39 008 4 gusting 8 17.8
2020-Sep-25 01:34 270 3 gusting 6 17.8
2020-Sep-25 01:29 141 0 gusting 4 17.8
2020-Sep-25 01:24 210 0 gusting 3 17.8
2020-Sep-25 01:19 191 1 gusting 8 17.8
2020-Sep-25 01:14 308 0 gusting 7 17.8
2020-Sep-25 01:09 316 2 gusting 7 17.8
2020-Sep-25 01:04 179 1 gusting 6 18.3
2020-Sep-25 00:59 301 4 gusting 6 17.8
2020-Sep-25 00:54 212 2 gusting 11 17.8
2020-Sep-25 00:49 229 1 gusting 11 17.8
2020-Sep-25 00:44 285 4 gusting 7 17.8
2020-Sep-25 00:39 256 4 gusting 8 17.8
2020-Sep-25 00:34 321 1 gusting 5 17.2
2020-Sep-25 00:29 272 0 gusting 4 17.2
2020-Sep-25 00:24 302 0 gusting 8 17.2
2020-Sep-25 00:19 244 4 gusting 8 16.7
2020-Sep-25 00:14 037 0 gusting 3 16.7
2020-Sep-25 00:09 075 1 gusting 3 16.7
2020-Sep-25 00:04 016 1 gusting 3 16.7
2020-Sep-24 23:59 120 0 gusting 5 17.2
2020-Sep-24 23:54 040 1 gusting 6 16.7
2020-Sep-24 23:49 090 3 gusting 6 16.7
2020-Sep-24 23:44 270 0 gusting 2 16.7
2020-Sep-24 23:39 239 0 gusting 4 16.7
2020-Sep-24 23:34 222 0 gusting 4 16.7
2020-Sep-24 23:29 272 1 gusting 8 16.1
2020-Sep-24 23:24 236 4 gusting 8 15.6
2020-Sep-24 23:19 183 0 gusting 6 15.0
2020-Sep-24 23:14 258 1 gusting 6 14.4
2020-Sep-24 23:09 205 3 gusting 6 14.4
2020-Sep-24 23:04 301 1 gusting 3 15.0
2020-Sep-24 22:59 300 0 gusting 4 15.0
2020-Sep-24 22:54 307 1 gusting 6 15.0
2020-Sep-24 22:49 294 2 gusting 6 15.0
2020-Sep-24 22:44 270 1 gusting 5 15.0
2020-Sep-24 22:39 319 2 gusting 4 15.0
2020-Sep-24 22:34 279 0 gusting 3 15.6
2020-Sep-24 22:29 280 0 gusting 3 15.6
2020-Sep-24 22:24 266 1 gusting 3 15.6
2020-Sep-24 22:19 299 0 gusting 3 15.6
2020-Sep-24 22:14 304 2 gusting 5 15.6
2020-Sep-24 22:09 320 3 gusting 5 15.6
2020-Sep-24 22:04 275 1 gusting 3 15.6
2020-Sep-24 21:59 275 2 gusting 3 15.6
2020-Sep-24 21:54 278 0 gusting 2 15.6
2020-Sep-24 21:49 276 0 gusting 6 15.6
2020-Sep-24 21:44 275 4 gusting 7 16.1
2020-Sep-24 21:39 279 5 gusting 7 16.1
2020-Sep-24 21:34 268 3 gusting 6 16.1
2020-Sep-24 21:29 268 2 gusting 3 16.1
2020-Sep-24 21:24 276 2 gusting 5 16.1
2020-Sep-24 21:19 253 2 gusting 5 16.1
2020-Sep-24 21:14 277 1 gusting 3 16.7
2020-Sep-24 21:09 274 2 gusting 3 16.7
2020-Sep-24 21:04 282 2 gusting 3 16.7
2020-Sep-24 20:59 282 1 gusting 6 16.7
2020-Sep-24 20:54 272 2 gusting 6 16.7
2020-Sep-24 20:49 276 2 gusting 7 16.7
2020-Sep-24 20:44 279 2 gusting 7 16.7
2020-Sep-24 20:39 270 3 gusting 6 16.7
2020-Sep-24 20:34 270 2 gusting 6 17.2
2020-Sep-24 20:29 270 2 gusting 5 17.2
2020-Sep-24 20:24 285 1 gusting 6 17.2
2020-Sep-24 20:19 285 0 gusting 6 17.2
2020-Sep-24 20:14 270 2 gusting 4 17.2
2020-Sep-24 20:09 278 1 gusting 4 17.2
2020-Sep-24 20:04 266 1 gusting 6 17.8
2020-Sep-24 19:59 283 2 gusting 6 17.8
2020-Sep-24 19:54 271 1 gusting 5 17.8
2020-Sep-24 19:49 277 1 gusting 3 17.8
2020-Sep-24 19:44 280 1 gusting 3 18.3
2020-Sep-24 19:39 303 1 gusting 3 18.3
2020-Sep-24 19:34 311 2 gusting 6 18.3
2020-Sep-24 19:29 274 2 gusting 6 17.8
2020-Sep-24 19:24 272 2 gusting 4 17.8
2020-Sep-24 19:19 268 2 gusting 4 17.8
2020-Sep-24 19:14 270 1 gusting 3 17.8
2020-Sep-24 19:09 277 1 gusting 2 18.3
2020-Sep-24 19:04 274 0 gusting 1 18.3
2020-Sep-24 18:59 275 0 gusting 1 18.3
2020-Sep-24 18:54 276 0 gusting 1 18.9
2020-Sep-24 18:49 275 0 gusting 2 18.9
2020-Sep-24 18:44 274 0 gusting 2 18.9
2020-Sep-24 18:39 276 1 gusting 2 19.4
2020-Sep-24 18:34 276 0 gusting 2 19.4
2020-Sep-24 18:29 274 1 gusting 4 19.4
2020-Sep-24 18:24 275 2 gusting 4 19.4
2020-Sep-24 18:19 246 2 gusting 6 19.4
2020-Sep-24 18:14 238 4 gusting 6 19.4
2020-Sep-24 18:09 234 2 gusting 6 20.0
2020-Sep-24 18:04 266 0 gusting 1 20.0